Regional Weather Roundup
Issued by NWS

Home | Current Version | Previous Version | Graphics & Text | Print | Product List | Glossary On
Versions: 1 2 3 4 5 6 7 8 9 10 11 12 13 14 15 16 17 18 19 20 21 22 23 24 25 26 27 28 29 30 31 32 33 34 35 36 37 38 39 40 41 42 43 44 45 46 47 48 49 50
000
ASUS45 KABQ 010701
RWRNM
NEW MEXICO REGIONAL WEATHER ROUNDUP
NATIONAL WEATHER SERVICE ALBUQUERQUE NM
100 AM MDT WED JUL 01 2015

NOTE: "FAIR" MEANS FEW OR NO CLOUDS BELOW 12,000 FEET AGL WITH NO
       SIGNIFICANT WEATHER OR OBSTRUCTIONS TO VISION.

      THIS PRODUCT IS RELEASED AS TWO VERSIONS.  ONE VERSION NEAR
      THE TOP OF THE HOUR CONTAINING PRELIMINARY DATA FROM ALBUQUERQUE
      AND OTHER STATIONS.  A FINAL VERSION WITH ADDITIONAL DATA IS
      ISSUED ABOUT 10 MINUTES AFTER THE HOUR.

NMZ501-503-504-510>518-010800-
NORTHWEST PLATEAU/NORTHCENTRAL MOUNTAINS

CITY           SKY/WX    TMP DP  RH WIND       PRES   REMARKS
FARMINGTON     PTCLDY    79  48  33 S6        30.06R
SANTA FE       CLEAR     70  43  37 S6        30.25R
TAOS           PTCLDY    64  43  45 E3        30.30R

$$
NMZ402-403-502-505>509-010800-
WESTCENTRAL MOUNTAINS/SOUTHWEST MOUNTAINS

CITY           SKY/WX    TMP DP  RH WIND       PRES   REMARKS
GALLUP         PTCLDY    68  50  52 CALM      30.20F
GRANTS         CLEAR     65  41  41 SE9       30.23S
SILVER CITY      N/A     68  52  56 E6        30.22S

$$
NMZ407-409-411-412-010800-
SOUTHERN DESERTS

CITY           SKY/WX    TMP DP  RH WIND       PRES   REMARKS
LORDSBURG      FAIR      73  52  46 CALM      30.11R
DEMING         PTCLDY    73  49  42 CALM      30.12R
HOLLOMAN AFB   PTCLDY    77  50  38 S17G23    30.08S
ALAMOGORDO     CLEAR     75  48  38 S12       30.11R
T OR C         CLEAR     76  51  41 S10       30.14S

$$
NMZ519>523-010800-
CENTRAL VALLEYS/CENTRAL HIGHLANDS

CITY           SKY/WX    TMP DP  RH WIND       PRES   REMARKS
ALBUQUERQUE    CLEAR     78  43  28 SE8       30.16S
DOUBLE EAGLE   CLEAR     73  44  35 S10       30.19S
CLINES CORNERS CLEAR     63  44  50 SW8       30.30S
BELEN          FAIR      76  42  29 SE13      30.14F
SOCORRO        NOT AVBL

$$
NMZ524>526-539-540-010800-
SOUTHCENTRAL MOUNTAINS

CITY           SKY/WX    TMP DP  RH WIND       PRES   REMARKS
RUIDOSO        NOT AVBL

$$
NMZ527>531-010800-
NORTHEAST HIGHLANDS/NORTHEAST PLAINS

CITY           SKY/WX    TMP DP  RH WIND       PRES   REMARKS
LAS VEGAS      CLEAR     59  46  62 SW12      30.28F
RATON          PTCLDY    63  50  62 N9        30.23R
CLAYTON        CLEAR     69  50  50 SW15      30.13S

$$
NMZ532>537-010800-
EASTCENTRAL PLAINS

CITY           SKY/WX    TMP DP  RH WIND       PRES   REMARKS
TUCUMCARI      CLEAR     73  53  49 S7        30.08S
CANNON AFB     CLEAR     66  56  71 S7        30.13R
CLOVIS AIRPORT CLEAR     64  55  72 S8          N/A

$$
NMZ028-029-538-010800-
SOUTHEAST PLAINS

CITY           SKY/WX    TMP DP  RH WIND       PRES   REMARKS
ROSWELL        CLEAR     70  55  59 S7        30.09R
ARTESIA        CLEAR     72  57  60 S7        30.10R
CARLSBAD       CLEAR     74  58  57 S8        30.06S
HOBBS          CLEAR     70  63  78 SE7       30.12S


$$


USA.gov is the U.S. government's official web portal to all federal, state and local government web resources and services.